Tracking 30744 objects as of 24-Jun-2025
HD Live streaming from Space Station
objects crossing your sky now

STARLINK-2282

Track STARLINK-2282 now!
10-day predictions
STARLINK-2282 is classified as:


NORAD ID: 48018
Int'l Code: 2021-024AT
Perigee: 415.8 km
Apogee: 419.8 km
Inclination: 53.0 °
Period: 92.8 minutes
Semi major axis: 6788 km
RCS: Unknown
Launch date: March 24, 2021
Source: United States (US)
Launch site: AIR FORCE EASTERN TEST RANGE (AFETR)
Your satellite tracking list
Your tracking list is empty




NASA's NSSDC Master Catalog

Two Line Element Set (TLE):
1 48018U 21024AT  25174.91668981  .00164895  00000-0  26381-2 0  9992
2 48018  53.0273   2.3837 0002920 103.1946 106.9272 15.52076095  5904
Source of the keplerian elements: AFSPC